Terminal Aerodrome Forecast
Issued by NWS Billings, MT

Home | Current Version | Previous Version | Graphics & Text | Print | Product List | Glossary On
Versions: 1 2 3 4 5 6 7 8 9 10 11 12 13 14 15 16 17 18 19 20 21 22 23 24 25 26 27 28 29 30 31 32 33 34
000
FTUS45 KBYZ 240534
TAFMLS
TAF
KMLS 240534Z 2406/2506 16008KT P6SM SCT120 BKN200
     FM241200 18006KT P6SM SCT080 BKN120
     FM241900 22007KT P6SM SCT080 BKN150
     FM250300 34012KT P6SM VCSH SCT025 BKN050=

USA.gov is the U.S. government's official web portal to all federal, state and local government web resources and services.